{"data":{"norad_id":59343,"intl_designator":"2024-058A","name":"YUNHAI-3 02","alt_names":[],"object_type":"PAYLOAD","status":"ACTIVE","operator":null,"country":"PRC","launch_date":"2024-03-26","launch_site_code":"TAISC","launch_vehicle":null,"mission":null,"orbit_class":"UNKNOWN","rcs_meters":null,"size_class":null,"mass_kg":null,"dimensions":null,"purposes":[],"wikipedia_slug":null,"has_3d_model":false,"image_url":null,"decayed_at":null,"tle_current":{"epoch":"2026-09-22T22:56:48.137280Z","epoch_age_seconds":48735,"freshness":"FRESH","line1":"1 59343U 24058A   26265.95611270  .00000010  00000+0  28531-4 0  9998","line2":"2 59343  98.8244 272.4557 0001977  92.6859 267.4540 14.13332379128551","mean_motion":14.13332379,"eccentricity":0.0001977,"inclination_deg":98.8244,"raan_deg":272.4557,"arg_perigee_deg":92.6859,"mean_anomaly_deg":267.454,"bstar":2.8531e-5,"rev_number":12855,"period_min":101.88686125049,"perigee_km":846.56215162865,"apogee_km":849.4193625438,"semimajor_km":7226.1277570862,"source":"CELESTRAK","updated_at":"2026-09-23T09:00:19.322505Z"}}}